Terminal Aerodrome Forecast
Issued by NWS

Home | Current Version | Previous Version | Text Only | Print | Product List | Glossary On
Versions: 1 2 3 4 5 6 7 8 9 10 11 12 13
000
FTUS44 KCRP 282331
TAFALI
TAF
KALI 282331Z 2900/2924 14015G22KT P6SM VCSH BKN040
     FM290200 13010KT P6SM SCT012 BKN028
     FM290600 13007KT 5SM BR BKN015
     FM291500 15015G22KT P6SM SCT025 BKN030=

USA.gov is the U.S. government's official web portal to all federal, state and local government web resources and services.